Location: Clairmont
(55.2667°N, 118.8000°W)
Time: 09:08:30
(UTC+00:00)

N. Korean satellite - Pass Details

Date: 04 November 2020
Orbit: 453 x 503 km, 97.2° (Epoch: 03 December)

Event Time Altitude Azimuth Distance (km) Brightness Sun altitude
Rises 14:23:43 0° 8° (N) 2,484 10.1 -6.6°
Reaches altitude 10° 14:25:52 10° 359° (N) 1,605 9.0 -6.3°
Maximum altitude 14:29:00 34° 293° (WNW) 777 7.1 -5.9°
Drops below altitude 10° 14:32:07 10° 227° (SW) 1,599 8.9 -5.4°
Sets 14:34:16 0° 218° (SW) 2,473 10.0 -5.2°
